Wind_Speed
13 14 15 17 17 17 17 17 17 17 18 18 19 20 20 20 21 24 24 25 26 26 27 27 28 28 28 28 28 28 28 27 26 26 26 25 25 24 23 23 22 21 20 19
13 14 15 16 17 17 18 18 17 18 18 18 20 20 21 22 24 25 26 27 27 27 27 27 27 28 28 27 27 27 26 25 25 25 24 23 23 23 22 21 20 19 18 18
14 15 15 16 16 17 17 17 18 18 19 21 22 21 22 24 25 26 26 27 27 27 27 27 27 27 26 25 25 24 24 23 23 22 22 22 21 21 20 19 18 17 16 15
14 14 15 15 16 16 16 17 17 19 20 21 21 22 23 25 26 27 27 27 27 27 27 26 26 25 24 23 23 22 21 20 20 19 18 18 18 17 16 16 16 15 15 14
11 12 12 13 14 14 15 17 17 18 19 20 21 23 25 26 26 26 26 26 26 26 25 24 23 23 22 21 20 19 18 17 16 15 14 13 12 12 12 12 12 12 12 11
9 10 10 10 12 13 14 14 16 18 19 20 22 24 24 25 25 25 25 25 24 24 22 22 21 20 19 18 17 16 15 14 13 11 10 8 8 8 8 8 8 9 10 10
8 9 9 9 10 11 12 14 16 17 19 21 22 23 24 24 25 23 23 22 22 21 20 19 18 17 16 15 14 13 12 10 9 7 5 5 5 5 6 6 7 8 8 9
6 7 8 8 9 11 12 14 16 18 19 21 22 22 23 23 23 22 21 20 20 18 17 16 15 13 12 10 10 9 8 6 5 4 3 3 3 4 5 6 7 7 7 7
4 5 7 8 9 10 13 15 16 18 20 20 21 21 20 20 20 19 18 17 16 13 12 12 11 9 7 6 6 5 4 3 3 3 3 4 4 4 5 6 7 7 7 6
4 6 7 8 9 12 14 15 16 17 18 18 19 18 18 18 17 16 15 14 12 10 10 9 8 6 4 4 3 1 0 2 3 4 5 5 5 6 6 6 6 6 5 5
4 5 6 8 10 12 13 14 15 16 18 18 18 18 17 15 15 14 12 11 10 8 8 6 5 4 3 2 1 2 3 4 5 6 6 6 6 6 6 6 6 6 6 6
5 6 7 9 10 11 12 13 14 16 16 17 16 15 14 13 12 12 11 9 8 8 6 5 4 4 4 4 4 5 6 7 7 7 7 7 8 8 7 7 7 7 7 8
6 7 8 9 10 11 12 13 14 14 15 15 14 13 13 12 11 10 9 8 8 7 6 6 5 5 5 7 8 8 9 9 10 10 9 9 9 9 9 9 10 10 10 10
7 8 9 10 11 11 12 13 13 13 13 13 13 12 12 11 10 10 9 8 8 8 8 8 8 8 8 9 10 11 11 12 12 11 11 11 11 11 11 11 12 12 12 12
8 8 9 10 11 11 12 12 13 13 13 13 12 12 11 10 10 9 8 8 9 9 9 9 10 10 10 11 11 12 12 12 12 12 12 12 13 13 14 14 15 15 15 14
8 8 9 9 10 11 11 11 12 12 12 12 12 12 12 11 10 9 9 9 9 9 10 10 11 11 11 12 12 13 13 13 13 13 13 14 14 15 16 17 17 16 16 16
8 9 9 9 10 11 10 10 11 11 11 11 12 12 12 12 11 11 10 10 10 10 11 11 11 12 13 13 13 14 14 14 14 14 14 14 15 17 17 17 17 17 17 17
8 9 9 9 10 10 10 10 10 10 10 11 11 12 12 12 12 12 12 12 12 11 11 12 12 13 13 14 14 15 15 14 15 15 15 16 17 17 17 18 18 18 18 18
8 8 9 9 10 10 10 10 10 10 10 10 11 12 12 13 13 13 13 13 13 13 13 13 14 14 14 14 14 15 15 15 15 16 17 18 18 18 18 18 18 18 18 18
7 8 9 9 10 10 10 10 10 10 9 9 10 11 12 12 13 13 13 13 13 14 14 14 14 15 15 15 15 16 16 16 17 17 18 18 18 18 18 18 18 17 17 17
6 7 8 8 9 9 9 10 10 10 9 9 9 9 10 11 12 12 12 12 13 13 13 14 14 15 15 15 15 15 16 16 17 17 17 17 17 17 16 16 16 16 16 16
5 6 6 7 8 8 8 8 9 9 9 8 8 8 9 10 10 10 11 11 11 12 12 12 13 13 13 14 14 14 15 15 16 16 16 16 16 15 15 15 15 15 15 15
4 4 5 6 6 7 7 7 7 8 8 7 7 7 7 8 9 9 9 10 10 10 11 11 12 12 12 12 13 14 14 13 14 14 15 14 14 14 15 14 14 14 14 14
5 4 5 5 5 5 5 5 6 6 6 5 5 5 6 6 7 8 8 8 8 9 9 10 11 11 11 12 12 13 13 13 13 13 13 14 13 13 13 13 13 13 12 12
6 6 6 6 5 5 5 4 4 4 4 4 3 3 4 5 5 6 6 7 7 8 8 9 10 11 11 11 11 12 11 12 12 11 11 11 12 12 12 12 11 11 10 10
8 7 7 7 6 6 5 4 4 3 3 2 2 2 2 2 3 4 5 5 6 6 7 8 9 10 10 10 10 10 10 10 10 10 10 10 10 10 10 10 9 9 8 8
9 9 8 8 8 7 6 6 5 5 4 4 3 2 1 1 2 2 3 3 4 5 6 7 8 8 8 8 9 9 9 9 9 9 9 9 10 9 9 8 8 7 7 6
Wind_Direction
234 231 234 238 242 250 258 266 277 283 288 292 296 298 300 302 303 306 304 301 300 300 299 297 294 293 292 291 290 289 287 285 283 279 275 273 269 267 268 266 265 265 263 263
232 232 237 242 247 254 263 271 280 287 292 293 296 302 304 304 305 305 303 301 300 299 297 296 295 293 292 291 290 288 286 283 283 279 274 271 269 267 266 264 261 261 260 259
232 233 234 242 249 255 263 272 280 286 292 296 298 302 304 305 303 302 301 301 300 299 298 297 295 294 292 291 290 289 286 284 282 279 273 271 269 265 262 260 258 255 253 250
235 240 241 247 255 263 268 274 281 288 292 298 300 302 303 303 302 302 302 302 300 300 299 297 295 293 291 289 289 288 285 284 282 279 275 271 266 262 258 253 249 245 242 240
238 244 245 254 263 271 275 279 287 295 296 299 302 304 305 304 303 303 302 302 302 302 300 298 296 294 291 288 288 287 284 283 283 282 276 269 261 255 249 243 238 230 229 230
242 246 254 264 269 276 280 286 297 300 301 303 308 308 307 306 304 303 303 303 303 302 301 300 299 298 295 290 287 286 284 281 280 280 274 264 254 248 235 227 223 219 222 219
250 254 258 273 281 282 289 298 304 307 309 311 312 313 311 310 309 307 306 306 305 304 302 302 304 302 298 292 288 287 285 278 274 271 264 252 250 239 220 214 210 207 208 205
261 263 267 280 287 293 302 307 310 311 312 313 314 314 314 314 313 313 312 310 309 307 305 306 306 304 299 294 292 289 284 274 263 249 241 220 212 199 186 185 189 187 186 190
274 278 277 283 291 300 307 313 315 313 315 316 317 317 318 320 319 320 320 319 317 314 313 314 314 308 304 303 299 292 280 257 238 213 193 173 166 161 159 161 167 171 177 181
294 302 300 303 306 310 314 316 318 319 323 323 323 323 324 326 327 326 327 329 329 327 326 327 325 319 314 314 316 317 175 152 143 151 153 152 152 152 151 147 151 156 162 164
335 328 324 322 322 321 324 326 326 328 329 327 327 328 330 333 336 336 336 341 344 343 343 344 342 347 357 7 35 93 115 129 128 129 133 137 137 137 135 132 133 141 145 147
342 336 334 333 333 332 333 334 334 334 334 333 333 336 339 342 346 350 352 356 359 360 5 12 26 41 52 60 86 102 112 121 122 119 123 127 126 128 128 126 128 132 135 137
355 346 342 343 343 343 342 344 345 345 347 346 347 350 351 354 359 3 8 13 16 21 30 41 56 75 84 87 97 105 111 113 113 109 111 115 118 119 121 122 119 120 122 125
359 351 350 350 352 353 351 352 355 356 358 359 359 2 4 7 11 17 24 33 40 42 48 61 76 90 94 100 106 108 109 109 108 105 105 106 110 113 115 117 119 119 119 119
2 357 354 357 360 360 358 359 1 4 7 9 11 12 15 17 20 27 38 48 54 56 63 72 81 92 96 103 108 110 108 109 108 106 104 105 107 109 113 116 116 116 115 114
5 2 1 1 1 3 3 4 8 11 16 21 25 26 28 31 37 44 53 59 62 66 73 80 87 93 96 102 105 108 107 108 108 107 107 109 109 109 111 113 112 111 110 111
6 5 4 3 3 7 9 11 14 18 24 29 33 35 37 40 44 50 58 67 74 78 82 87 92 95 102 103 105 107 108 109 109 108 109 109 110 112 112 111 110 108 108 109
11 11 12 11 11 13 15 19 24 30 35 37 39 42 44 46 50 56 63 71 78 83 85 89 95 99 102 106 107 108 110 111 110 110 111 111 112 112 111 110 109 110 110 109
16 17 18 18 19 21 21 24 29 34 40 42 44 47 50 54 58 63 68 74 79 82 86 89 95 100 102 106 108 109 110 110 112 112 113 114 114 114 112 111 111 111 110 108
15 18 19 21 23 25 27 30 33 37 42 44 49 54 55 59 63 67 71 76 79 83 86 90 96 101 103 105 108 110 110 111 113 115 114 114 113 113 113 113 113 112 111 111
11 15 19 22 24 26 28 32 34 38 43 48 53 59 61 63 66 70 74 79 82 85 89 94 98 102 105 107 109 111 112 114 116 117 117 116 115 114 114 114 114 113 113 113
359 7 11 15 19 21 25 30 35 38 41 47 55 62 65 67 70 73 76 81 86 89 94 99 103 105 108 111 113 114 114 117 119 120 121 120 119 118 118 117 117 116 115 114
336 345 351 358 5 11 18 24 29 34 39 45 55 62 67 70 72 75 80 85 90 94 98 103 106 109 112 115 116 118 118 120 122 123 123 123 123 122 121 121 121 120 119 116
313 318 324 331 340 351 1 8 14 21 30 42 54 61 67 72 76 80 86 91 97 101 104 108 110 113 117 119 120 121 123 124 124 125 126 126 125 125 125 126 125 124 122 120
296 298 303 309 316 325 332 342 351 359 11 27 42 57 67 75 83 87 92 97 103 106 111 115 117 117 119 122 124 126 129 130 130 130 130 130 130 131 132 131 131 130 128 126
287 287 288 293 298 302 306 308 312 320 331 344 358 21 62 89 95 95 99 106 114 119 123 126 127 127 128 130 132 134 137 138 137 137 138 139 140 139 139 138 138 137 136 134
280 281 279 280 284 288 289 290 289 287 283 283 287 278 250 205 172 150 136 131 134 137 140 144 146 145 145 146 147 147 149 150 151 150 150 151 152 152 152 151 151 151 150 148
Height
5788 5789 5790 5791 5791 5791 5791 5791 5791 5791 5790 5789 5788 5786 5784 5782 5780 5777 5774 5771 5769 5766 5763 5759 5756 5754 5751 5748 5746 5743 5741 5740 5738 5737 5736 5735 5735 5735 5735 5736 5737 5738 5738 5739
5785 5787 5787 5788 5788 5788 5788 5788 5787 5787 5786 5784 5782 5780 5778 5776 5773 5770 5767 5765 5762 5758 5755 5752 5749 5746 5743 5740 5738 5735 5733 5732 5730 5729 5728 5728 5728 5728 5729 5729 5730 5731 5732 5733
5782 5784 5784 5785 5785 5785 5785 5784 5784 5783 5782 5780 5777 5775 5772 5769 5766 5763 5761 5757 5754 5750 5747 5743 5740 5737 5735 5732 5730 5728 5727 5725 5723 5722 5722 5721 5721 5722 5722 5723 5724 5726 5727 5728
5779 5781 5782 5784 5782 5782 5782 5781 5781 5779 5777 5775 5772 5770 5766 5763 5760 5756 5753 5749 5745 5742 5738 5735 5732 5729 5727 5725 5724 5722 5720 5718 5717 5716 5716 5715 5715 5716 5717 5718 5719 5721 5723 5724
5776 5777 5778 5780 5779 5778 5778 5778 5776 5774 5772 5769 5767 5763 5760 5756 5752 5749 5745 5741 5738 5734 5731 5728 5725 5723 5720 5719 5717 5715 5714 5713 5712 5711 5711 5710 5710 5711 5712 5714 5715 5717 5719 5720
5774 5775 5776 5778 5777 5775 5776 5774 5772 5769 5767 5764 5761 5758 5754 5749 5745 5742 5738 5734 5731 5727 5724 5721 5719 5716 5714 5713 5711 5710 5709 5708 5708 5708 5707 5707 5707 5708 5709 5711 5712 5714 5716 5717
5772 5772 5773 5774 5773 5773 5773 5772 5768 5765 5761 5758 5755 5752 5747 5743 5739 5735 5731 5728 5724 5721 5718 5716 5714 5711 5710 5708 5707 5706 5705 5705 5705 5705 5705 5705 5705 5706 5707 5709 5710 5712 5714 5715
5770 5770 5773 5772 5771 5770 5769 5766 5763 5760 5757 5753 5749 5745 5741 5737 5732 5728 5725 5722 5719 5716 5713 5711 5709 5707 5706 5705 5704 5703 5702 5702 5702 5703 5703 5704 5704 5705 5706 5708 5709 5711 5713 5714
5769 5770 5769 5768 5767 5767 5765 5762 5759 5756 5752 5748 5744 5740 5736 5732 5728 5724 5720 5717 5714 5712 5709 5708 5706 5704 5703 5702 5702 5701 5701 5701 5701 5702 5702 5703 5704 5705 5706 5708 5709 5711 5712 5714
5767 5767 5766 5766 5764 5763 5761 5758 5755 5751 5747 5744 5740 5736 5732 5728 5724 5720 5717 5714 5711 5709 5707 5705 5704 5702 5702 5701 5701 5700 5700 5701 5701 5702 5703 5704 5705 5706 5707 5708 5709 5711 5712 5714
5765 5765 5764 5763 5761 5760 5757 5754 5751 5747 5744 5740 5736 5732 5728 5725 5721 5717 5715 5712 5710 5708 5706 5704 5703 5702 5701 5701 5700 5700 5701 5701 5702 5702 5703 5705 5705 5706 5708 5709 5710 5712 5713 5714
5764 5763 5762 5761 5759 5757 5754 5751 5748 5744 5740 5736 5732 5729 5726 5722 5719 5716 5714 5711 5709 5707 5706 5704 5703 5702 5702 5701 5701 5701 5701 5702 5703 5704 5705 5706 5707 5708 5709 5710 5711 5713 5714 5716
5763 5762 5760 5759 5757 5754 5752 5749 5745 5742 5738 5734 5731 5727 5724 5721 5719 5716 5714 5711 5710 5708 5706 5705 5704 5704 5703 5703 5703 5704 5704 5705 5706 5706 5707 5708 5709 5710 5711 5712 5713 5714 5716 5717
5762 5761 5759 5757 5755 5753 5750 5747 5744 5741 5737 5734 5730 5727 5724 5721 5719 5716 5714 5712 5711 5709 5708 5706 5706 5706 5706 5706 5706 5707 5707 5708 5709 5709 5710 5711 5712 5713 5714 5715 5716 5717 5719 5720
5761 5760 5758 5756 5754 5752 5749 5746 5743 5740 5737 5734 5730 5727 5725 5722 5720 5717 5715 5714 5712 5711 5710 5709 5709 5708 5708 5709 5710 5710 5711 5712 5712 5713 5714 5715 5715 5716 5717 5718 5719 5721 5722 5723
5761 5759 5758 5756 5754 5751 5749 5746 5743 5740 5737 5734 5731 5729 5726 5723 5721 5719 5717 5716 5715 5714 5713 5712 5712 5712 5712 5713 5713 5714 5715 5716 5716 5717 5718 5719 5719 5720 5721 5722 5724 5725 5726 5727
5761 5759 5757 5755 5753 5751 5749 5746 5744 5741 5738 5736 5733 5731 5728 5726 5723 5721 5720 5718 5717 5716 5716 5716 5715 5715 5716 5716 5717 5718 5719 5719 5720 5721 5722 5723 5724 5725 5726 5727 5728 5729 5730 5731
5761 5759 5757 5755 5753 5752 5749 5747 5745 5742 5740 5738 5735 5733 5731 5729 5726 5725 5723 5721 5721 5720 5719 5719 5719 5719 5720 5721 5721 5722 5723 5724 5724 5725 5726 5727 5728 5729 5730 5731 5732 5733 5734 5735
5761 5760 5758 5756 5754 5752 5750 5748 5746 5744 5742 5740 5738 5736 5734 5732 5730 5728 5727 5726 5725 5724 5723 5723 5723 5723 5724 5725 5726 5727 5727 5728 5729 5730 5731 5732 5733 5734 5735 5736 5737 5738 5739 5740
5762 5760 5759 5757 5755 5754 5752 5750 5748 5746 5744 5742 5741 5739 5737 5736 5734 5732 5731 5730 5729 5728 5728 5727 5728 5728 5729 5729 5730 5731 5732 5733 5734 5735 5736 5737 5738 5739 5740 5741 5742 5743 5743 5744
5762 5761 5760 5758 5757 5755 5753 5751 5750 5748 5746 5745 5743 5742 5740 5739 5738 5736 5735 5735 5734 5733 5732 5732 5733 5733 5734 5734 5735 5736 5737 5738 5739 5740 5741 5742 5742 5743 5744 5745 5746 5747 5748 5748
5762 5761 5760 5759 5758 5756 5755 5753 5752 5750 5748 5747 5746 5744 5743 5742 5741 5740 5739 5739 5738 5737 5737 5737 5737 5738 5738 5739 5740 5740 5741 5742 5743 5744 5745 5746 5746 5747 5748 5749 5750 5751 5751 5752
5762 5761 5760 5759 5758 5757 5756 5755 5753 5752 5750 5749 5748 5747 5746 5745 5744 5743 5743 5742 5742 5741 5741 5741 5741 5742 5742 5743 5743 5744 5745 5746 5747 5748 5748 5749 5750 5751 5752 5752 5753 5754 5755 5755
5761 5760 5759 5759 5758 5757 5756 5755 5754 5753 5752 5751 5750 5749 5748 5748 5747 5746 5746 5745 5745 5745 5745 5745 5745 5745 5745 5746 5747 5748 5749 5750 5751 5752 5752 5753 5753 5754 5755 5755 5756 5757 5757 5758
5759 5759 5758 5758 5757 5757 5756 5755 5755 5754 5753 5752 5751 5751 5750 5750 5749 5749 5748 5748 5748 5747 5747 5748 5748 5748 5748 5749 5750 5751 5752 5753 5753 5754 5755 5756 5756 5757 5757 5758 5759 5759 5759 5760
5757 5757 5757 5756 5756 5756 5755 5755 5754 5754 5753 5753 5752 5752 5751 5751 5751 5750 5750 5750 5750 5750 5750 5750 5751 5751 5751 5752 5752 5753 5754 5755 5756 5756 5757 5757 5758 5759 5759 5760 5760 5761 5761 5761
5754 5754 5754 5754 5754 5754 5754 5753 5753 5753 5753 5752 5752 5752 5752 5752 5751 5751 5751 5751 5751 5751 5751 5752 5752 5753 5753 5754 5754 5755 5755 5756 5757 5758 5758 5759 5759 5760 5761 5761 5761 5761 5762 5762